DELSA EDLW-EDDS

Flight info

Callsign DELSA
Flight time 1h 12m
Altitude 9000
Route GMH8Q/06 GMH Z841 BIGSU L603 BOMBI N850 RINEX Z818 ETASA DCT NOSBU T726 LBU
Aircraft DA42/L-SBDGRY/S

Departure

Time 2026-05-06 18:49
Airport Dortmund Airport (EDLW)

Arrival

Time 2026-05-06 20:01
Airport Stuttgart Airport (EDDS)
Time Latitude Longitude Altitude Speed Heading
2026-05-06 18:26 51.51253 7.60563 436 ft 0 kts 105°
2026-05-06 18:42 51.51268 7.60563 436 ft 10 kts 322°
2026-05-06 18:42 51.51253 7.60459 443 ft 11 kts 240°
2026-05-06 18:43 51.51213 7.60347 443 ft 12 kts 239°
2026-05-06 18:43 51.51163 7.60233 442 ft 14 kts 238°
2026-05-06 18:43 51.51198 7.60173 441 ft 10 kts 51°
2026-05-06 18:43 51.51247 7.60304 431 ft 17 kts 57°
2026-05-06 18:44 51.51306 7.60474 437 ft 18 kts 58°
2026-05-06 18:44 51.51376 7.60673 424 ft 29 kts 60°
2026-05-06 18:44 51.51463 7.60921 421 ft 21 kts 59°
2026-05-06 18:44 51.51539 7.61044 426 ft 23 kts 355°
2026-05-06 18:45 51.51548 7.60834 416 ft 31 kts 255°
2026-05-06 18:45 51.51528 7.60680 410 ft 0 kts 280°
2026-05-06 18:47 51.51529 7.60674 409 ft 6 kts 282°
2026-05-06 18:47 51.51616 7.60613 409 ft 12 kts 39°
2026-05-06 18:47 51.51625 7.60631 409 ft 0 kts 59°
2026-05-06 18:48 51.51686 7.60806 412 ft 50 kts 58°
2026-05-06 18:49 51.51946 7.61551 434 ft 94 kts 56°
2026-05-06 18:49 51.52282 7.62525 702 ft 103 kts 57°
2026-05-06 18:49 51.52622 7.63525 1100 ft 102 kts 56°
2026-05-06 18:49 51.52963 7.64514 1510 ft 99 kts 57°
2026-05-06 18:50 51.53290 7.65455 1913 ft 98 kts 57°
2026-05-06 18:50 51.53628 7.66418 2303 ft 98 kts 57°
2026-05-06 18:50 51.53967 7.67375 2697 ft 99 kts 57°
2026-05-06 18:50 51.54304 7.68324 3097 ft 99 kts 57°
2026-05-06 18:51 51.54650 7.69292 3462 ft 100 kts 57°
2026-05-06 18:51 51.55000 7.70272 3821 ft 102 kts 56°
2026-05-06 18:51 51.55362 7.71287 4187 ft 103 kts 56°
2026-05-06 18:51 51.55712 7.72269 4536 ft 103 kts 56°
2026-05-06 18:52 51.55918 7.73401 4843 ft 111 kts 88°
2026-05-06 18:52 51.55624 7.74562 5164 ft 118 kts 129°
2026-05-06 18:52 51.55004 7.75459 5473 ft 122 kts 139°
2026-05-06 18:52 51.54348 7.76348 5796 ft 124 kts 140°
2026-05-06 18:53 51.53678 7.77216 6128 ft 124 kts 153°
2026-05-06 18:53 51.52869 7.77551 6501 ft 119 kts 174°
2026-05-06 18:53 51.52035 7.77761 6790 ft 123 kts 173°
2026-05-06 18:53 51.51199 7.78005 7120 ft 121 kts 171°
2026-05-06 18:54 51.50367 7.78266 7435 ft 122 kts 171°
2026-05-06 18:54 51.49528 7.78537 7723 ft 122 kts 172°
2026-05-06 18:54 51.48687 7.78811 7867 ft 127 kts 171°
2026-05-06 18:54 51.47824 7.79097 8197 ft 126 kts 171°
2026-05-06 18:55 51.46963 7.79382 8521 ft 127 kts 171°
2026-05-06 18:55 51.46100 7.79668 8846 ft 128 kts 171°
2026-05-06 18:55 51.45146 7.79978 8873 ft 151 kts 171°
2026-05-06 18:55 51.44057 7.80332 8870 ft 167 kts 170°
2026-05-06 18:56 51.42884 7.80720 8864 ft 177 kts 170°
2026-05-06 18:56 51.41666 7.81127 8864 ft 181 kts 169°
2026-05-06 18:56 51.40424 7.81538 8863 ft 183 kts 170°
2026-05-06 18:56 51.39170 7.81953 8864 ft 185 kts 170°
2026-05-06 18:57 51.37909 7.82368 8862 ft 185 kts 170°
2026-05-06 18:57 51.36645 7.82786 8864 ft 186 kts 169°
2026-05-06 18:57 51.35383 7.83200 8859 ft 185 kts 170°
2026-05-06 18:57 51.34126 7.83594 8865 ft 184 kts 169°
2026-05-06 18:58 51.32881 7.84023 8866 ft 183 kts 169°
2026-05-06 18:58 51.31636 7.84437 8876 ft 183 kts 170°
2026-05-06 18:58 51.30382 7.84844 8861 ft 184 kts 171°
2026-05-06 18:58 51.29132 7.85240 8855 ft 182 kts 169°
2026-05-06 18:59 51.27892 7.85664 8855 ft 183 kts 169°
2026-05-06 18:59 51.26645 7.86076 8855 ft 183 kts 169°
2026-05-06 18:59 51.25399 7.86479 8856 ft 182 kts 169°
2026-05-06 18:59 51.24158 7.86883 8852 ft 182 kts 169°
2026-05-06 19:00 51.22917 7.87293 8855 ft 182 kts 169°
2026-05-06 19:00 51.21671 7.87694 8855 ft 184 kts 170°
2026-05-06 19:00 51.20423 7.88098 8866 ft 183 kts 169°
2026-05-06 19:00 51.19596 7.88372 8863 ft 183 kts 169°
2026-05-06 19:01 51.17943 7.88923 8863 ft 181 kts 170°
2026-05-06 19:01 51.16760 7.89593 8855 ft 182 kts 149°
2026-05-06 19:01 51.15737 7.90764 8857 ft 181 kts 143°
2026-05-06 19:01 51.14733 7.91977 8857 ft 181 kts 143°
2026-05-06 19:02 51.13731 7.93188 8856 ft 181 kts 143°
2026-05-06 19:02 51.12729 7.94393 8863 ft 181 kts 143°
2026-05-06 19:02 51.11729 7.95592 8858 ft 180 kts 143°
2026-05-06 19:02 51.10731 7.96792 8861 ft 180 kts 143°
2026-05-06 19:03 51.09729 7.97999 8853 ft 180 kts 143°
2026-05-06 19:03 51.08731 7.99202 8851 ft 180 kts 143°
2026-05-06 19:03 51.07731 8.00400 8854 ft 180 kts 143°
2026-05-06 19:03 51.06729 8.01598 8852 ft 180 kts 143°
2026-05-06 19:04 51.05731 8.02788 8850 ft 180 kts 144°
2026-05-06 19:04 51.04734 8.03986 8843 ft 179 kts 144°
2026-05-06 19:04 51.03743 8.05169 8843 ft 177 kts 144°
2026-05-06 19:04 51.02763 8.06339 8849 ft 174 kts 147°
2026-05-06 19:05 51.01799 8.07496 8845 ft 173 kts 147°
2026-05-06 19:05 51.00833 8.08654 8846 ft 175 kts 147°
2026-05-06 19:05 50.99861 8.09817 8846 ft 175 kts 147°
2026-05-06 19:05 50.98882 8.10983 8842 ft 177 kts 147°
2026-05-06 19:06 50.97898 8.12155 8840 ft 177 kts 147°
2026-05-06 19:06 50.96911 8.13331 8834 ft 178 kts 147°
2026-05-06 19:06 50.95920 8.14512 8837 ft 178 kts 147°
2026-05-06 19:06 50.94931 8.15690 8836 ft 179 kts 147°
2026-05-06 19:07 50.93932 8.16879 8836 ft 179 kts 147°
2026-05-06 19:07 50.93273 8.17663 8838 ft 179 kts 147°
2026-05-06 19:07 50.91935 8.19255 8835 ft 180 kts 147°
2026-05-06 19:07 50.91274 8.20041 8838 ft 180 kts 147°
2026-05-06 19:08 50.90270 8.21232 8838 ft 180 kts 147°
2026-05-06 19:08 50.89269 8.22420 8837 ft 180 kts 147°
2026-05-06 19:08 50.88269 8.23607 8841 ft 179 kts 147°
2026-05-06 19:08 50.87272 8.24789 8839 ft 179 kts 147°
2026-05-06 19:09 50.86276 8.25972 8841 ft 179 kts 147°
2026-05-06 19:09 50.85280 8.27151 8842 ft 178 kts 147°
2026-05-06 19:09 50.84256 8.28242 8829 ft 177 kts 155°
2026-05-06 19:09 50.83181 8.29171 8827 ft 175 kts 154°
2026-05-06 19:10 50.82105 8.30093 8830 ft 176 kts 155°
2026-05-06 19:10 50.81029 8.30977 8829 ft 174 kts 156°
2026-05-06 19:10 50.79959 8.31896 8836 ft 176 kts 154°
2026-05-06 19:10 50.78887 8.32839 8837 ft 177 kts 155°
2026-05-06 19:11 50.77800 8.33763 8838 ft 177 kts 155°
2026-05-06 19:11 50.76711 8.34684 8838 ft 178 kts 155°
2026-05-06 19:11 50.75623 8.35606 8838 ft 177 kts 155°
2026-05-06 19:11 50.74536 8.36530 8839 ft 178 kts 155°
2026-05-06 19:12 50.73446 8.37456 8838 ft 178 kts 155°
2026-05-06 19:12 50.72350 8.38386 8836 ft 179 kts 155°
2026-05-06 19:12 50.71256 8.39314 8837 ft 178 kts 155°
2026-05-06 19:12 50.70162 8.40242 8838 ft 179 kts 155°
2026-05-06 19:13 50.69066 8.41172 8832 ft 179 kts 155°
2026-05-06 19:13 50.67973 8.42099 8835 ft 178 kts 155°
2026-05-06 19:13 50.66881 8.43025 8824 ft 179 kts 156°
2026-05-06 19:13 50.65784 8.43952 8821 ft 179 kts 156°
2026-05-06 19:14 50.64687 8.44880 8822 ft 179 kts 156°
2026-05-06 19:14 50.63588 8.45808 8822 ft 179 kts 156°
2026-05-06 19:14 50.62505 8.46725 8824 ft 180 kts 156°
2026-05-06 19:14 50.61384 8.47674 8820 ft 180 kts 156°
2026-05-06 19:15 50.60295 8.48594 8818 ft 180 kts 156°
2026-05-06 19:15 50.59191 8.49526 8817 ft 180 kts 156°
2026-05-06 19:15 50.58089 8.50455 8820 ft 180 kts 156°
2026-05-06 19:15 50.56986 8.51385 8818 ft 180 kts 156°
2026-05-06 19:16 50.55880 8.52317 8817 ft 180 kts 156°
2026-05-06 19:16 50.54774 8.53248 8818 ft 181 kts 156°
2026-05-06 19:16 50.53668 8.54179 8817 ft 181 kts 156°
2026-05-06 19:16 50.52561 8.55110 8817 ft 181 kts 156°
2026-05-06 19:17 50.51454 8.56042 8815 ft 181 kts 156°
2026-05-06 19:17 50.50345 8.56973 8811 ft 180 kts 156°
2026-05-06 19:17 50.49239 8.57902 8811 ft 180 kts 156°
2026-05-06 19:17 50.48136 8.58829 8811 ft 180 kts 156°
2026-05-06 19:18 50.47036 8.59752 8814 ft 179 kts 156°
2026-05-06 19:18 50.45935 8.60676 8813 ft 180 kts 156°
2026-05-06 19:18 50.44773 8.61269 8821 ft 174 kts 179°
2026-05-06 19:18 50.43570 8.61312 8823 ft 173 kts 184°
2026-05-06 19:19 50.42367 8.61323 8824 ft 173 kts 182°
2026-05-06 19:19 50.41164 8.61415 8825 ft 173 kts 180°
2026-05-06 19:19 50.39958 8.61547 8827 ft 174 kts 180°
2026-05-06 19:19 50.38753 8.61687 8826 ft 173 kts 180°
2026-05-06 19:20 50.37561 8.61824 8827 ft 173 kts 180°
2026-05-06 19:20 50.36345 8.61962 8821 ft 174 kts 180°
2026-05-06 19:20 50.35142 8.62101 8823 ft 174 kts 180°
2026-05-06 19:20 50.33930 8.62239 8824 ft 174 kts 180°
2026-05-06 19:21 50.32721 8.62376 8822 ft 175 kts 180°
2026-05-06 19:21 50.31504 8.62514 8821 ft 175 kts 180°
2026-05-06 19:21 50.30288 8.62652 8822 ft 176 kts 180°
2026-05-06 19:21 50.29070 8.62790 8820 ft 176 kts 180°
2026-05-06 19:22 50.27850 8.62928 8823 ft 176 kts 180°
2026-05-06 19:22 50.26635 8.63069 8827 ft 175 kts 179°
2026-05-06 19:22 50.25424 8.63206 8825 ft 175 kts 180°
2026-05-06 19:22 50.24208 8.63340 8826 ft 175 kts 180°
2026-05-06 19:23 50.22998 8.63478 8823 ft 175 kts 180°
2026-05-06 19:23 50.21781 8.63615 8822 ft 175 kts 180°
2026-05-06 19:23 50.20565 8.63753 8823 ft 175 kts 180°
2026-05-06 19:23 50.19350 8.63891 8825 ft 175 kts 180°
2026-05-06 19:24 50.18133 8.64028 8826 ft 176 kts 180°
2026-05-06 19:24 50.16912 8.64166 8825 ft 175 kts 180°
2026-05-06 19:24 50.15698 8.64304 8826 ft 175 kts 180°
2026-05-06 19:24 50.14483 8.64441 8826 ft 175 kts 180°
2026-05-06 19:25 50.13264 8.64578 8826 ft 176 kts 180°
2026-05-06 19:25 50.12046 8.64716 8825 ft 176 kts 180°
2026-05-06 19:25 50.10857 8.64850 8825 ft 172 kts 180°
2026-05-06 19:25 50.09664 8.64985 8821 ft 173 kts 180°
2026-05-06 19:26 50.08457 8.65120 8821 ft 175 kts 180°
2026-05-06 19:26 50.07241 8.65256 8821 ft 176 kts 180°
2026-05-06 19:26 50.06021 8.65393 8821 ft 176 kts 180°
2026-05-06 19:26 50.04801 8.65530 8823 ft 176 kts 180°
2026-05-06 19:27 50.03580 8.65667 8850 ft 176 kts 180°
2026-05-06 19:27 50.02358 8.65805 8850 ft 176 kts 180°
2026-05-06 19:27 50.01138 8.65942 8850 ft 175 kts 180°
2026-05-06 19:27 49.99922 8.66078 8850 ft 175 kts 180°
2026-05-06 19:28 49.98710 8.66214 8850 ft 175 kts 180°
2026-05-06 19:28 49.97496 8.66350 8850 ft 175 kts 180°
2026-05-06 19:28 49.96285 8.66486 8850 ft 175 kts 180°
2026-05-06 19:28 49.95068 8.66622 8849 ft 175 kts 180°
2026-05-06 19:29 49.93872 8.66756 8848 ft 175 kts 180°
2026-05-06 19:29 49.92642 8.66893 8847 ft 175 kts 180°
2026-05-06 19:29 49.91446 8.67027 8825 ft 175 kts 180°
2026-05-06 19:29 49.90218 8.67164 8825 ft 175 kts 180°
2026-05-06 19:30 49.89023 8.67297 8825 ft 174 kts 180°
2026-05-06 19:30 49.87798 8.67434 8827 ft 175 kts 180°
2026-05-06 19:30 49.86580 8.67569 8824 ft 176 kts 180°
2026-05-06 19:30 49.85375 8.67704 8827 ft 177 kts 180°
2026-05-06 19:31 49.84125 8.67843 8827 ft 178 kts 180°
2026-05-06 19:31 49.82888 8.67981 8827 ft 178 kts 180°
2026-05-06 19:31 49.80430 8.68255 8828 ft 178 kts 180°
2026-05-06 19:32 49.79194 8.68393 8833 ft 178 kts 180°
2026-05-06 19:32 49.77960 8.68529 8836 ft 178 kts 180°
2026-05-06 19:32 49.76720 8.68666 8837 ft 179 kts 180°
2026-05-06 19:32 49.75478 8.68803 8835 ft 179 kts 180°
2026-05-06 19:33 49.74237 8.68944 8833 ft 178 kts 180°
2026-05-06 19:33 49.73013 8.68909 8838 ft 175 kts 189°
2026-05-06 19:33 49.71795 8.68745 8841 ft 176 kts 189°
2026-05-06 19:33 49.70575 8.68578 8845 ft 176 kts 189°
2026-05-06 19:34 49.69359 8.68411 8856 ft 174 kts 189°
2026-05-06 19:34 49.68150 8.68251 8856 ft 175 kts 189°
2026-05-06 19:34 49.66930 8.68088 8852 ft 177 kts 189°
2026-05-06 19:34 49.65704 8.67920 8851 ft 176 kts 189°
2026-05-06 19:35 49.64478 8.67758 8850 ft 177 kts 189°
2026-05-06 19:35 49.63254 8.67595 8846 ft 176 kts 188°
2026-05-06 19:35 49.62031 8.67431 8850 ft 177 kts 188°
2026-05-06 19:35 49.60804 8.67271 8845 ft 177 kts 188°
2026-05-06 19:36 49.59583 8.67107 8848 ft 176 kts 189°
2026-05-06 19:36 49.58358 8.66936 8850 ft 177 kts 188°
2026-05-06 19:36 49.57131 8.66771 8852 ft 177 kts 188°
2026-05-06 19:36 49.55903 8.66608 8853 ft 178 kts 188°
2026-05-06 19:37 49.54671 8.66445 8849 ft 177 kts 188°
2026-05-06 19:37 49.53442 8.66281 8851 ft 177 kts 188°
2026-05-06 19:37 49.52212 8.66117 8851 ft 178 kts 188°
2026-05-06 19:37 49.51400 8.66009 8854 ft 177 kts 188°
2026-05-06 19:38 49.49754 8.65790 8853 ft 177 kts 188°
2026-05-06 19:38 49.48525 8.65626 8853 ft 177 kts 188°
2026-05-06 19:38 49.47299 8.65462 8853 ft 177 kts 188°
2026-05-06 19:38 49.46074 8.65299 8853 ft 177 kts 188°
2026-05-06 19:39 49.44848 8.65136 8853 ft 177 kts 188°
2026-05-06 19:39 49.43625 8.64974 8853 ft 177 kts 188°
2026-05-06 19:39 49.42400 8.64811 8852 ft 177 kts 188°
2026-05-06 19:39 49.41178 8.64648 8852 ft 177 kts 188°
2026-05-06 19:40 49.39951 8.64485 8854 ft 177 kts 188°
2026-05-06 19:40 49.38721 8.64322 8853 ft 177 kts 188°
2026-05-06 19:40 49.37491 8.64159 8852 ft 177 kts 188°
2026-05-06 19:40 49.36264 8.63996 8850 ft 177 kts 188°
2026-05-06 19:41 49.35037 8.63834 8847 ft 177 kts 188°
2026-05-06 19:41 49.33801 8.63974 8846 ft 181 kts 169°
2026-05-06 19:41 49.32653 8.64806 8843 ft 186 kts 147°
2026-05-06 19:41 49.31765 8.66263 8846 ft 189 kts 127°
2026-05-06 19:42 49.31042 8.67949 8848 ft 190 kts 126°
2026-05-06 19:42 49.30328 8.69654 8849 ft 190 kts 126°
2026-05-06 19:42 49.29612 8.71353 8848 ft 190 kts 126°
2026-05-06 19:42 49.28893 8.73053 8846 ft 190 kts 126°
2026-05-06 19:43 49.28067 8.74613 8842 ft 188 kts 138°
2026-05-06 19:43 49.27134 8.76015 8841 ft 188 kts 138°
2026-05-06 19:43 49.26221 8.77443 8844 ft 188 kts 137°
2026-05-06 19:43 49.25328 8.78898 8843 ft 188 kts 136°
2026-05-06 19:44 49.24447 8.80346 8842 ft 188 kts 136°
2026-05-06 19:44 49.23553 8.81810 8841 ft 188 kts 136°
2026-05-06 19:44 49.22660 8.83271 8842 ft 188 kts 136°
2026-05-06 19:44 49.21755 8.84748 8838 ft 188 kts 136°
2026-05-06 19:45 49.20863 8.86205 8839 ft 188 kts 136°
2026-05-06 19:45 49.19969 8.87664 8839 ft 188 kts 136°
2026-05-06 19:45 49.19089 8.89102 8832 ft 187 kts 136°
2026-05-06 19:45 49.18185 8.90574 8831 ft 187 kts 137°
2026-05-06 19:46 49.17182 8.91767 8839 ft 181 kts 162°
2026-05-06 19:46 49.15963 8.92051 8845 ft 177 kts 181°
2026-05-06 19:46 49.14736 8.92084 8846 ft 176 kts 183°
2026-05-06 19:46 49.13509 8.92097 8846 ft 177 kts 184°
2026-05-06 19:47 49.12279 8.92107 8844 ft 177 kts 183°
2026-05-06 19:47 49.11048 8.92117 8843 ft 177 kts 184°
2026-05-06 19:47 49.09818 8.92123 8845 ft 177 kts 184°
2026-05-06 19:47 49.08583 8.92130 8846 ft 177 kts 184°
2026-05-06 19:48 49.07352 8.92134 8849 ft 177 kts 184°
2026-05-06 19:48 49.06123 8.92141 8850 ft 177 kts 184°
2026-05-06 19:48 49.04891 8.92149 8850 ft 177 kts 183°
2026-05-06 19:48 49.03678 8.92156 8849 ft 176 kts 184°
2026-05-06 19:49 49.02452 8.92164 8850 ft 177 kts 184°
2026-05-06 19:49 49.01221 8.92176 8851 ft 176 kts 184°
2026-05-06 19:49 48.99978 8.92186 8857 ft 177 kts 184°
2026-05-06 19:49 48.98762 8.92194 8856 ft 176 kts 184°
2026-05-06 19:50 48.97537 8.92207 8859 ft 176 kts 184°
2026-05-06 19:50 48.96299 8.92219 8858 ft 175 kts 184°
2026-05-06 19:50 48.95082 8.92223 8847 ft 175 kts 184°
2026-05-06 19:50 48.93869 8.92221 8851 ft 174 kts 184°
2026-05-06 19:51 48.92661 8.92216 8849 ft 173 kts 184°
2026-05-06 19:51 48.91475 8.92217 8849 ft 173 kts 183°
2026-05-06 19:51 48.90274 8.92214 8850 ft 172 kts 183°
2026-05-06 19:51 48.89464 8.92208 8851 ft 172 kts 184°
2026-05-06 19:52 48.88280 8.92199 8933 ft 167 kts 184°
2026-05-06 19:52 48.87121 8.92198 8870 ft 172 kts 184°
2026-05-06 19:52 48.85877 8.92182 8605 ft 183 kts 184°
2026-05-06 19:52 48.84582 8.92167 8347 ft 190 kts 184°
2026-05-06 19:53 48.83249 8.92149 8093 ft 193 kts 184°
2026-05-06 19:53 48.81896 8.92133 7841 ft 195 kts 184°
2026-05-06 19:53 48.80536 8.92117 7590 ft 196 kts 184°
2026-05-06 19:53 48.79175 8.92101 7339 ft 196 kts 184°
2026-05-06 19:54 48.77816 8.92088 7089 ft 195 kts 184°
2026-05-06 19:54 48.76455 8.92074 6840 ft 195 kts 184°
2026-05-06 19:54 48.75096 8.92057 6595 ft 195 kts 184°
2026-05-06 19:54 48.73742 8.92045 6357 ft 195 kts 184°
2026-05-06 19:55 48.72378 8.92058 6101 ft 196 kts 184°
2026-05-06 19:55 48.71015 8.92101 5841 ft 196 kts 184°
2026-05-06 19:55 48.69652 8.92159 5581 ft 196 kts 184°
2026-05-06 19:55 48.68296 8.92227 5325 ft 194 kts 184°
2026-05-06 19:56 48.66946 8.92303 5073 ft 194 kts 184°
2026-05-06 19:56 48.65601 8.92379 4821 ft 193 kts 184°
2026-05-06 19:56 48.64276 8.92781 4578 ft 202 kts 159°
2026-05-06 19:56 48.63239 8.94243 4318 ft 211 kts 126°
2026-05-06 19:57 48.62615 8.96267 4060 ft 212 kts 115°
2026-05-06 19:57 48.62100 8.98306 4020 ft 202 kts 114°
2026-05-06 19:57 48.61643 9.00282 4016 ft 196 kts 113°
2026-05-06 19:57 48.61186 9.02201 4016 ft 193 kts 112°
2026-05-06 19:58 48.61146 9.04211 4015 ft 195 kts 74°
2026-05-06 19:58 48.61852 9.05893 4018 ft 189 kts 40°
2026-05-06 19:58 48.62878 9.07210 3770 ft 198 kts 34°
2026-05-06 19:58 48.63978 9.08493 3536 ft 201 kts 33°
2026-05-06 19:59 48.65071 9.09762 3465 ft 197 kts 34°
2026-05-06 19:59 48.66109 9.11157 3193 ft 197 kts 43°
2026-05-06 19:59 48.66927 9.12700 2770 ft 184 kts 56°
2026-05-06 19:59 48.67490 9.14363 2386 ft 168 kts 68°
2026-05-06 20:00 48.67832 9.15897 2062 ft 135 kts 79°
2026-05-06 20:00 48.68016 9.17062 1843 ft 100 kts 76°
2026-05-06 20:00 48.68192 9.17965 1712 ft 91 kts 75°
2026-05-06 20:00 48.68368 9.18913 1556 ft 95 kts 76°
2026-05-06 20:01 48.68547 9.19852 1428 ft 90 kts 77°
2026-05-06 20:01 48.68714 9.20747 1291 ft 84 kts 73°
2026-05-06 20:01 48.68835 9.21392 1280 ft 44 kts 73°
2026-05-06 20:01 48.68921 9.21475 1280 ft 13 kts 343°
2026-05-06 20:02 48.68960 9.21460 1280 ft 0 kts 343°
2026-05-06 20:03 48.68977 9.21452 1280 ft 10 kts 335°
2026-05-06 20:03 48.69014 9.21307 1280 ft 16 kts 283°
2026-05-06 20:03 48.69040 9.21151 1280 ft 15 kts 284°
2026-05-06 20:04 48.69088 9.21026 1280 ft 14 kts 315°
2026-05-06 20:04 48.69152 9.20962 1280 ft 10 kts 19°
2026-05-06 20:04 48.69183 9.21051 1280 ft 11 kts 78°
2026-05-06 20:04 48.69168 9.21069 1280 ft 4 kts 196°
2026-05-06 20:05 48.69138 9.21058 1280 ft 0 kts 193°